User: anonymous   Login
Location: Azul
(36.7830°S, 59.8500°W)
Time: 01:01:14
(UTC-03:00)
Language:

EO-79 - Orbit

View from above orbital plane
View from above orbital plane
View from above satellite
View from above satellite

Ground track
Ground track

The orbit data is extracted from the following two-line orbital elements,

1 40025U 14033R   24262.82727081  .00011660  00000-0  88783-3 0  9994
2 40025  98.0545 226.8552 0010519 208.1726 151.8929 15.02209524557435
Epoch (UTC): 18 September 2024 19:51:16
Eccentricity: 0.0010519
inclination: 98.0545°
perigee height: 553 km
apogee height: 567 km
right ascension of ascending node: 226.8552°
argument of perigee: 208.1726°
revolutions per day: 15.02209524
mean anomaly at epoch: 151.8929°
orbit number at epoch: 55743

The dashed part of the orbit path shows where the satellite is in the earth's shadow,  

DLR